TimeCDT,TemperatureF,Dew PointF,Humidity,Sea Level PressureIn,VisibilityMPH,Wind Direction,Wind SpeedMPH,Gust SpeedMPH,PrecipitationIn,Events,Conditions,WindDirDegrees,DateUTC
12:56 AM,57.9,54.0,87,30.12,10.0,Calm,Calm,-,0.01,,Clear,0,2012-10-24 05:56:00
1:56 AM,55.9,53.1,90,30.12,10.0,Calm,Calm,-,N/A,,Clear,0,2012-10-24 06:56:00
2:56 AM,55.0,52.0,89,30.12,10.0,Calm,Calm,-,N/A,,Clear,0,2012-10-24 07:56:00
3:56 AM,54.0,51.1,90,30.13,10.0,Calm,Calm,-,N/A,,Partly Cloudy,0,2012-10-24 08:56:00
4:56 AM,55.0,52.0,89,30.14,10.0,Calm,Calm,-,N/A,,Overcast,0,2012-10-24 09:56:00
5:56 AM,54.0,52.0,93,30.15,10.0,Calm,Calm,-,N/A,,Scattered Clouds,0,2012-10-24 10:56:00
6:56 AM,53.1,51.1,93,30.17,10.0,Calm,Calm,-,N/A,,Mostly Cloudy,0,2012-10-24 11:56:00
6:59 AM,53.6,51.8,94,30.13,9.0,Calm,Calm,-,N/A,,Scattered Clouds,0,2012-10-24 11:59:00
7:56 AM,53.1,51.1,93,30.17,7.0,East,3.5,-,N/A,,Scattered Clouds,100,2012-10-24 12:56:00
8:56 AM,61.0,55.0,81,30.18,10.0,Calm,Calm,-,N/A,,Clear,0,2012-10-24 13:56:00
9:56 AM,69.1,59.0,70,30.17,10.0,SSE,4.6,-,N/A,,Clear,150,2012-10-24 14:56:00
10:56 AM,73.9,59.0,59,30.16,10.0,SSE,6.9,-,N/A,,Clear,160,2012-10-24 15:56:00
11:56 AM,77.0,57.9,52,30.14,10.0,South,4.6,-,N/A,,Clear,170,2012-10-24 16:56:00
12:56 PM,79.0,57.0,47,30.11,10.0,South,6.9,-,N/A,,Partly Cloudy,170,2012-10-24 17:56:00
1:56 PM,81.0,57.0,44,30.09,10.0,Variable,6.9,-,N/A,,Clear,0,2012-10-24 18:56:00
2:56 PM,81.0,57.0,44,30.07,10.0,SSE,3.5,-,N/A,,Partly Cloudy,160,2012-10-24 19:56:00
3:56 PM,81.0,55.0,41,30.06,10.0,Calm,Calm,-,N/A,,Partly Cloudy,0,2012-10-24 20:56:00
4:56 PM,80.1,55.9,43,30.05,10.0,Calm,Calm,-,N/A,,Clear,0,2012-10-24 21:56:00
5:56 PM,71.1,62.1,73,30.05,10.0,Calm,Calm,-,N/A,,Clear,0,2012-10-24 22:56:00
6:56 PM,68.0,60.1,76,30.07,10.0,Calm,Calm,-,N/A,,Clear,0,2012-10-24 23:56:00
7:56 PM,66.0,60.1,81,30.08,10.0,Calm,Calm,-,N/A,,Clear,0,2012-10-25 00:56:00
8:56 PM,62.1,59.0,90,30.08,10.0,Calm,Calm,-,N/A,,Clear,0,2012-10-25 01:56:00
9:56 PM,60.1,57.0,90,30.08,10.0,East,3.5,-,N/A,,Clear,90,2012-10-25 02:56:00
10:56 PM,60.1,57.0,90,30.08,10.0,Calm,Calm,-,N/A,,Clear,0,2012-10-25 03:56:00
11:56 PM,57.9,55.9,93,30.07,7.0,Calm,Calm,-,N/A,,Clear,0,2012-10-25 04:56:00